Location: Drocourt
(49.0571°N, 1.7669°E)
Time: 13:01:41
(UTC+00:00)

Nadezhda 2 Rocket - Pass Details

Date: 09 February 2023
Orbit: 947 x 1011 km, 83.0° (Epoch: 24 March)

Event Time Altitude Azimuth Distance (km) Brightness Sun altitude
Rises 17:35:32 0° 351° (N) 3,663 7.4 -5.9°
Reaches altitude 10° 17:38:04 10° 352° (N) 2,704 6.8 -6.3°
Maximum altitude 17:44:15 82° 80° (E) 967 4.5 -7.3°
Drops below altitude 10° 17:50:21 10° 169° (S) 2,663 6.8 -8.3°
Sets 17:52:50 0° 170° (S) 3,603 7.5 -8.7°
